GFSNGP_925_temp_231.txt.gz
Temp
8 9 9 8 8 9 8 9 8 11 11 13 13 13 13 13 14 14 15 15 15 15 16 16 16 16 16 15 14 14 14 15 15 15 15 14 13 12 12 11 11 11 10 10
6 8 8 8 9 9 9 9 9 10 10 13 13 13 13 13 13 14 14 15 15 15 16 15 15 15 14 15 13 13 13 13 13 13 13 12 11 10 10 10 9 9 9 10
6 8 8 6 9 10 10 11 10 10 12 13 13 13 13 13 13 13 14 14 14 15 15 14 14 13 14 14 13 12 12 12 12 11 11 10 9 9 9 8 7 7 7 8
5 6 5 9 10 11 10 11 11 11 11 13 13 13 13 13 13 13 13 14 14 15 14 14 13 13 13 13 13 11 11 10 11 10 10 9 8 8 7 7 6 6 7 7
5 6 8 8 10 10 9 11 12 11 12 12 13 13 12 13 13 13 13 13 13 13 13 13 13 13 12 13 12 11 10 10 10 9 8 8 7 6 6 5 5 5 6 5
4 5 5 9 11 11 10 9 12 12 11 11 12 10 12 13 13 12 12 12 12 13 13 13 12 12 12 12 12 11 11 10 9 9 8 6 6 5 4 4 3 3 3 4
6 5 7 9 11 11 8 9 11 11 11 11 11 11 13 12 11 12 12 11 11 11 12 12 12 11 11 11 11 11 11 9 8 8 7 6 4 4 3 2 1 1 1 2
5 5 6 10 9 9 11 11 10 10 11 10 11 11 10 10 11 12 11 11 10 10 11 11 11 11 11 11 10 10 10 9 8 6 5 4 3 2 1 1 1 -0 -1 -1
7 8 9 9 9 10 10 10 10 10 10 10 10 10 10 11 11 11 11 11 11 10 10 10 10 10 10 10 9 9 9 7 6 5 4 3 2 1 1 1 0 -0 -1 -1
7 8 9 9 9 10 10 9 10 10 10 10 9 10 10 10 11 11 11 11 11 10 10 9 9 9 8 7 7 6 5 4 4 3 2 1 1 1 1 1 0 -0 -0 -1
7 8 8 8 9 9 9 9 9 10 10 10 10 10 10 10 10 11 11 11 10 10 9 10 9 8 7 6 6 5 3 2 1 1 1 0 1 1 1 1 1 1 0 -1
6 8 8 8 9 9 9 9 9 9 9 9 9 9 10 10 10 10 10 10 11 10 9 9 9 7 5 4 4 3 1 1 1 1 0 0 0 -0 -0 0 0 1 3 4
7 8 8 8 9 9 8 8 8 8 9 8 9 9 9 9 10 9 9 8 8 9 9 9 9 6 4 3 3 2 2 1 0 0 0 0 -0 -0 -1 -1 1 2 2 2
8 8 6 7 6 6 6 7 7 8 8 8 8 8 8 9 8 8 7 6 5 5 6 7 6 4 3 3 2 2 1 1 1 1 0 0 0 0 -0 -1 -1 -2 -0 1
7 6 5 5 5 6 6 6 6 6 6 6 7 7 7 7 7 6 6 4 5 6 5 4 3 2 2 2 1 1 0 0 0 0 0 0 -0 -0 -1 -1 -2 -2 -2 -2
6 6 6 5 4 4 5 5 4 4 4 4 4 5 3 4 4 3 3 3 3 3 3 2 2 2 2 2 1 0 0 -0 -0 -0 -0 -0 -0 -1 -1 -2 -2 -2 -2 -2
3 4 3 3 3 3 3 3 3 3 3 3 3 2 1 2 2 1 1 1 1 2 1 1 1 2 1 1 0 -0 -1 -1 -1 -1 -1 -1 -1 -1 -2 -2 -2 -2 -2 -3
3 3 3 3 2 2 2 2 2 2 2 1 0 0 0 0 1 0 -0 -1 -1 -1 -1 -1 -0 -0 -0 -1 -1 -1 -1 -1 -1 -1 -2 -2 -2 -2 -2 -2 -2 -3 -3 -3
3 2 2 2 1 1 1 1 1 0 0 0 0 0 0 -0 -0 -0 -1 -1 -1 -1 -2 -1 -1 -1 -2 -1 -1 -2 -2 -2 -2 -2 -2 -2 -2 -2 -3 -3 -3 -3 -4 -3
2 2 2 1 1 0 0 0 -0 0 0 0 -0 0 0 -0 -1 -1 -1 -1 -1 -2 -2 -1 -1 -2 -2 -1 -2 -2 -2 -2 -2 -2 -2 -2 -3 -3 -3 -4 -4 -4 -4 -4
2 1 1 0 0 0 -0 -0 -0 0 -0 0 0 -0 -0 -1 -1 -1 -1 -1 -2 -2 -1 -1 -1 -2 -1 -1 -1 -2 -2 -2 -2 -2 -2 -3 -3 -4 -4 -4 -4 -4 -4 -4
1 1 0 0 0 0 -0 -1 -0 -0 -0 0 -0 -0 -0 -0 -1 -1 -2 -1 -2 -1 -1 -1 -1 -1 -1 -1 -1 -2 -2 -2 -3 -3 -3 -3 -3 -4 -4 -4 -4 -4 -5 -5
1 1 0 0 0 -0 -0 -1 -1 -1 -0 -1 -0 -0 -1 -1 -0 0 -1 -2 -2 -2 -2 -2 -1 -1 -1 -2 -2 -2 -2 -3 -3 -3 -3 -3 -3 -4 -4 -4 -5 -5 -5 -5
1 0 -0 -0 -0 0 0 -0 -1 -1 -1 -1 -1 -1 -0 -1 -1 -2 -2 -2 -1 -1 -2 -2 -2 -2 -2 -2 -2 -3 -3 -3 -3 -3 -3 -4 -4 -4 -5 -5 -5 -5 -6 -6
-0 0 0 0 1 0 -0 -0 -1 -1 -1 -1 -1 -1 -1 -1 -1 -2 -1 -2 -1 -1 -2 -1 -1 -2 -2 -2 -3 -3 -3 -3 -3 -3 -4 -4 -4 -4 -4 -5 -5 -6 -6 -6
0 0 0 -0 -0 -0 -0 -0 -0 -1 -1 -1 -1 -1 -1 -1 -1 -1 -1 -1 -1 -1 -2 -1 -1 -1 -2 -2 -2 -2 -3 -3 -3 -3 -4 -4 -4 -4 -5 -5 -5 -5 -5 -6
-0 -1 -0 -0 -0 -0 -1 -1 -0 -1 -1 -1 -1 -1 -1 -1 -1 -1 -1 -1 -1 -1 -1 -2 -1 -1 -2 -2 -2 -3 -3 -3 -3 -3 -4 -4 -4 -4 -4 -4 -5 -5 -4 -5

GFSNGP_925_temp_237.txt.gz
Temp
12 13 13 13 14 14 14 14 13 15 16 18 18 19 19 19 19 19 19 19 19 20 20 20 20 19 19 19 18 18 18 18 19 17 16 17 18 17 19 18 17 17 16 16
8 12 13 13 14 14 15 15 15 16 16 18 19 20 19 19 19 19 19 19 19 19 20 20 19 19 18 18 18 18 18 17 17 17 15 14 15 15 15 16 15 15 14 14
8 12 12 10 13 14 15 15 16 15 17 18 18 18 18 19 19 18 18 19 19 19 19 19 19 18 18 18 18 18 17 17 16 16 15 12 12 13 13 13 13 13 12 12
8 10 9 13 15 15 14 15 16 16 17 18 18 18 18 19 18 18 18 18 18 19 18 18 18 17 17 18 18 18 18 18 17 16 15 12 11 11 11 11 11 11 10 10
8 10 12 13 15 14 14 14 16 16 17 17 17 17 17 18 17 16 16 17 17 17 17 16 16 16 17 17 17 17 18 18 17 17 16 13 10 10 10 10 9 9 9 8
9 8 9 14 15 16 15 12 16 16 16 16 15 14 15 17 16 16 16 15 15 16 16 15 15 16 16 16 16 16 17 17 16 16 16 14 10 9 9 8 8 8 7 7
9 9 11 14 15 15 11 12 14 14 14 14 13 14 14 15 15 16 15 15 15 15 15 15 15 15 15 16 16 16 16 16 15 15 15 15 10 8 7 7 6 6 6 5
8 8 9 14 14 11 13 14 14 14 14 13 13 13 13 14 15 15 16 16 15 15 15 15 15 15 15 15 16 15 15 15 14 14 13 12 9 7 6 5 4 3 3 3
10 10 13 13 13 14 14 13 13 12 13 13 13 13 14 14 14 15 15 16 15 15 15 15 15 15 15 15 15 14 14 13 12 12 10 9 7 6 4 4 3 3 3 2
10 11 12 13 13 14 13 13 13 13 13 12 12 13 13 13 13 14 15 16 15 15 15 15 15 15 15 14 14 14 13 13 10 8 6 7 6 5 3 3 3 2 2 2
9 11 12 12 13 13 13 13 12 12 12 12 12 11 12 12 13 14 14 14 15 15 15 15 15 14 14 14 14 13 13 12 9 7 5 5 5 5 3 3 3 2 2 1
9 12 11 12 13 13 13 12 12 10 10 11 10 10 10 11 11 12 12 13 14 14 15 14 14 14 14 14 14 13 12 10 7 5 4 4 3 2 2 3 3 2 2 1
12 13 13 13 13 13 11 11 11 10 10 8 8 9 8 8 8 8 9 10 11 11 11 10 11 11 11 11 10 10 11 12 5 4 3 2 1 1 1 1 2 2 1 0
13 12 11 11 11 12 11 11 10 9 8 8 8 7 6 6 6 6 6 6 6 5 5 5 6 7 7 7 7 8 8 9 5 3 3 2 1 1 1 1 0 -1 -0 -0
13 12 11 11 11 11 10 9 8 8 8 7 5 4 4 3 3 3 3 4 4 4 3 4 4 5 5 5 5 5 6 7 4 3 2 2 1 1 0 0 -0 -1 -1 -1
12 11 10 10 8 8 8 7 6 5 5 4 3 2 2 3 3 3 4 4 2 2 1 1 2 2 3 3 4 5 5 4 3 2 1 1 1 0 0 0 -0 -1 -1 -1
9 8 7 6 6 6 5 5 4 4 3 2 2 2 2 2 2 2 1 0 -0 -1 -1 -1 -1 1 2 2 3 2 2 1 1 1 0 1 1 0 0 -0 -0 -1 -1 -2
9 7 6 6 6 5 4 4 4 3 2 1 1 1 1 1 1 0 -0 -0 -0 -0 -1 -1 -1 -1 0 0 1 0 -0 -0 0 0 0 0 0 -0 -0 -0 -1 -1 -2 -2
8 7 6 6 5 4 3 3 2 1 0 1 1 1 0 0 -0 -0 -1 -1 -0 -0 -1 -1 -2 -1 -1 -1 -0 -0 -0 -0 -0 -1 -0 -1 -1 -1 -1 -1 -1 -2 -2 -2
8 6 6 5 3 2 2 1 0 0 0 1 1 1 1 0 -0 -0 -0 -0 -1 -1 -1 -1 -1 -1 -1 -1 -1 -1 -1 -1 -1 -1 -1 -1 -1 -1 -1 -1 -1 -1 -1 -1
6 6 3 1 1 1 1 0 -0 0 0 0 1 0 0 -0 -1 -1 0 1 -1 -1 -1 -1 -1 -1 -1 -1 -1 -1 -1 -1 -1 -1 -1 -1 -1 -1 -1 -1 -1 -1 -2 -2
5 5 2 2 1 1 0 0 -0 -0 0 1 1 1 1 1 1 0 -1 -1 -1 -1 -1 -1 -2 -2 -1 -1 -1 -1 -1 -1 -1 -1 -1 -1 -1 -1 -1 -2 -2 -2 -2 -2
5 4 3 2 2 1 1 0 -0 -1 -0 -0 0 0 0 0 0 1 0 -2 -2 -1 -1 -2 -1 -1 -2 -2 -2 -2 -1 -1 -1 -1 -1 -2 -2 -2 -2 -2 -2 -2 -3 -3
5 4 4 3 4 4 3 1 -0 -0 -1 -1 -1 -0 -0 0 0 0 -0 -1 -2 -2 -2 -2 -2 -2 -2 -2 -2 -2 -2 -2 -2 -2 -2 -2 -2 -2 -2 -2 -3 -3 -3 -3
4 3 3 4 5 5 4 2 1 0 -0 0 -0 -1 -0 -0 0 -0 -1 -1 -2 -2 -2 -2 -2 -2 -2 -2 -2 -2 -2 -2 -2 -2 -2 -3 -3 -3 -3 -3 -3 -3 -4 -4
4 3 3 3 4 4 4 3 2 1 0 0 -0 -1 -1 -1 -0 -0 -1 -1 -2 -2 -2 -2 -2 -2 -2 -2 -2 -2 -2 -3 -3 -3 -3 -3 -3 -3 -3 -4 -4 -4 -4 -4
4 2 2 3 4 4 3 2 2 1 1 -0 -0 -1 -1 -1 -1 -1 -1 -2 -2 -2 -2 -2 -2 -2 -2 -2 -2 -3 -3 -3 -3 -3 -3 -3 -4 -4 -4 -4 -4 -4 -4 -4

GFSNGP_925_temp_243.txt.gz
Temp
8 9 10 11 12 13 13 11 8 11 13 15 15 16 14 15 15 17 17 18 18 18 17 16 18 18 19 18 18 18 17 18 17 17 17 17 17 16 16 16 17 17 19 21
3 10 10 9 10 12 12 13 13 13 13 14 16 17 17 15 15 16 15 15 16 15 17 16 17 18 18 17 17 17 17 17 17 17 17 16 16 15 15 15 16 15 16 17
4 9 8 5 11 12 13 13 14 12 13 14 13 14 13 13 13 13 13 14 14 14 13 14 15 16 16 16 16 16 16 16 17 17 17 17 15 15 15 14 13 13 14 15
2 6 1 8 13 13 13 13 12 12 12 13 13 14 13 12 12 13 13 13 13 13 13 14 15 15 15 16 16 16 15 15 16 17 17 16 16 15 14 14 13 12 11 12
2 3 7 10 13 12 12 11 11 10 11 12 13 13 13 13 13 13 12 12 13 14 15 15 15 15 15 15 15 15 15 15 15 15 16 16 15 15 14 14 13 12 10 10
0 5 6 10 11 12 12 9 11 12 12 11 11 8 10 11 12 12 12 13 13 14 14 14 15 15 14 14 14 14 14 15 15 15 15 15 15 15 14 13 12 11 8 9
-1 1 6 11 11 12 7 7 11 11 11 10 9 9 10 11 11 12 12 12 13 13 13 13 14 14 13 14 13 14 14 15 15 15 15 15 15 13 12 12 11 9 7 8
2 -0 3 10 10 8 9 10 10 10 10 10 9 9 10 10 10 11 10 11 11 11 11 12 12 13 13 12 13 14 15 14 14 15 15 14 13 12 11 10 8 6 6 7
6 5 8 10 9 10 10 9 10 10 10 9 9 10 10 10 10 10 10 10 11 11 11 11 11 11 11 12 13 13 14 14 14 14 14 14 13 12 10 9 6 6 5 5
6 8 9 9 10 10 10 9 10 10 10 10 9 9 9 10 9 9 9 9 9 9 8 8 8 8 9 10 10 11 11 13 14 13 13 12 12 11 10 8 5 5 4 3
6 8 8 9 9 10 10 10 9 10 10 9 9 8 8 8 8 8 8 8 7 7 7 7 7 7 8 7 8 8 8 9 9 10 12 12 10 11 11 11 10 5 4 5
5 8 8 8 8 9 10 9 9 8 8 8 7 7 7 7 7 6 5 5 5 5 5 5 6 6 5 6 6 6 6 6 7 8 7 5 4 4 5 5 5 5 5 5
7 9 8 8 9 9 8 8 7 6 6 6 6 5 5 5 4 3 4 3 4 4 3 4 4 4 4 4 4 4 4 5 6 6 6 5 4 4 3 4 3 3 4 4
9 9 7 8 7 8 7 6 6 6 6 5 5 5 4 4 3 3 3 3 2 2 2 2 2 2 2 1 1 1 2 3 3 4 5 4 4 4 4 2 2 2 3 3
9 9 8 7 7 6 6 6 5 4 5 4 4 3 2 2 2 2 2 1 1 0 0 1 0 -0 -0 -1 -1 -0 1 1 2 3 3 4 4 3 3 2 2 2 1 1
9 8 7 6 6 5 5 5 4 3 3 3 2 2 1 1 1 1 1 -0 -0 -0 -1 -1 -1 -1 -1 -2 -2 -1 -1 -0 1 2 2 3 3 3 3 2 2 1 0 -0
8 7 6 5 4 4 4 3 3 3 2 1 1 0 1 0 1 0 -0 -0 -1 -1 -1 -1 -1 -1 -2 -2 -2 -2 -1 -1 -0 0 2 3 3 2 2 1 1 0 -0 -1
7 7 6 5 3 2 2 2 2 1 0 0 -0 -0 0 0 -0 -0 -1 -1 -0 -1 -1 -2 -2 -2 -2 -2 -2 -2 -2 -1 -1 -0 1 2 2 1 1 1 0 -0 -1 -1
6 5 5 4 3 2 2 2 1 0 -0 -0 -0 -0 -0 -0 -0 -1 -1 -1 -0 -1 -1 -1 -2 -2 -2 -2 -1 -1 -1 -1 -1 -0 -0 0 -0 -0 -0 -0 -1 -1 -1 -2
5 5 5 4 4 3 2 1 0 -0 -0 -1 -0 0 0 0 0 -0 -1 -1 -1 -2 -2 -2 -2 -2 -2 -2 -2 -1 -1 -1 -1 -1 -1 -1 -1 -1 -1 -1 -1 -2 -2 -1
5 4 1 -1 -0 2 3 2 0 -0 -1 -0 -0 -0 0 0 0 0 -1 -1 -2 -2 -2 -2 -2 -2 -2 -2 -2 -2 -1 -1 -1 -1 -1 -1 -1 -1 -1 -2 -2 -1 -1 -2
4 2 -1 -1 -0 1 3 3 1 0 -1 -1 -0 -0 -0 0 0 -0 0 -1 -2 -2 -2 -2 -2 -2 -2 -2 -2 -2 -2 -2 -1 -1 -1 -1 -1 -1 -1 -1 -1 -2 -2 -2
4 4 3 3 3 3 3 3 1 1 0 -0 -1 -1 -1 -1 -0 -1 -1 -1 -2 -2 -2 -2 -2 -2 -2 -2 -2 -2 -2 -2 -2 -2 -2 -2 -2 -2 -2 -2 -2 -2 -3 -3
4 4 4 4 4 3 0 3 2 2 1 0 0 -0 -1 -1 -0 -0 -1 -2 -2 -2 -2 -2 -2 -2 -2 -3 -2 -2 -2 -2 -2 -2 -2 -2 -2 -2 -3 -3 -3 -3 -3 -3
4 4 4 3 2 1 2 3 3 3 2 1 1 -0 -1 -1 -0 -1 -2 -2 -2 -2 -2 -2 -2 -2 -2 -3 -3 -3 -3 -3 -2 -2 -3 -3 -3 -3 -3 -3 -3 -3 -4 -4
3 2 3 3 3 3 3 3 2 4 3 1 1 0 -1 -1 -1 -1 -1 -2 -2 -2 -2 -2 -2 -2 -3 -3 -3 -3 -3 -3 -3 -3 -3 -3 -3 -3 -3 -3 -3 -4 -4 -4
3 3 3 2 3 3 3 3 2 1 1 1 -0 -0 -0 -1 -1 -1 -1 -2 -2 -2 -2 -2 -2 -2 -3 -3 -3 -3 -3 -3 -3 -3 -3 -3 -3 -3 -3 -3 -4 -4 -4 -4

GFSNGP_925_temp_246.txt.gz
Temp
8 8 9 9 9 10 10 10 8 11 12 13 13 14 13 13 14 13 13 13 13 13 12 13 13 14 15 16 16 17 17 17 16 17 17 17 16 16 16 16 16 16 16 16
1 8 9 8 9 9 10 12 12 12 10 11 12 12 13 13 13 13 13 13 13 13 14 13 13 14 15 15 15 15 16 16 16 16 16 16 16 15 16 16 16 16 15 14
1 7 7 5 10 10 11 10 11 9 10 11 12 12 11 12 12 12 13 13 13 12 13 13 14 14 14 15 15 15 15 16 16 16 15 15 15 15 15 15 15 15 15 14
0 5 1 8 11 11 10 10 10 11 11 11 11 12 11 11 11 11 11 12 12 11 12 13 13 14 14 14 14 14 15 15 15 15 15 15 15 15 15 14 15 15 14 13
0 1 6 9 10 9 9 9 9 9 10 11 11 11 11 11 11 11 10 11 11 11 12 12 13 13 13 13 13 13 13 14 14 15 15 15 15 15 14 14 14 14 13 12
-3 0 2 9 9 11 11 7 10 9 10 10 10 7 8 10 10 10 10 11 11 11 11 11 11 12 12 11 12 12 13 13 14 15 14 14 15 15 14 13 12 12 12 11
-5 -0 5 8 9 10 6 7 10 9 9 9 8 8 9 9 9 10 10 11 11 11 10 10 11 11 10 10 10 11 11 12 13 13 13 14 14 14 14 12 11 10 11 11
-0 -3 3 9 9 8 7 8 8 9 8 8 8 8 8 8 8 9 8 9 10 9 9 9 9 9 8 8 8 8 9 10 10 11 11 12 14 14 13 11 10 9 10 11
4 4 6 8 7 7 7 7 7 8 8 7 7 8 8 8 8 7 8 8 8 8 8 8 8 8 7 7 8 8 8 8 9 9 9 10 11 12 10 9 8 9 8 7
5 7 7 7 8 7 8 7 8 7 7 8 7 7 7 6 6 6 7 7 6 6 5 5 6 6 6 6 6 6 6 6 6 7 7 9 7 8 6 6 6 6 4 3
4 6 7 7 7 7 7 8 8 7 6 5 5 5 5 5 5 5 4 4 4 4 4 4 4 4 4 5 5 5 5 5 4 5 5 6 7 3 4 5 5 8 10 8
3 6 6 6 7 7 7 6 5 5 4 5 5 4 4 4 4 4 3 3 4 3 3 3 3 3 3 4 4 4 4 3 3 3 3 3 5 5 5 4 4 6 6 8
6 7 6 6 7 6 6 5 5 4 4 3 4 4 4 4 4 3 3 3 2 2 2 1 1 1 2 1 1 1 1 1 1 2 2 2 2 3 3 4 4 4 4 4
6 6 6 7 6 6 5 5 5 4 4 4 3 3 3 2 2 2 2 1 1 -0 -1 -1 -0 -0 -0 -0 -1 -1 -1 -1 -1 0 1 2 2 2 3 3 3 4 4 3
7 7 6 6 6 5 5 4 3 2 3 3 2 2 1 1 1 0 1 0 -0 -0 -1 -1 -1 -1 -1 -2 -2 -2 -2 -2 -1 -1 -0 1 1 2 3 3 3 3 3 3
8 6 6 6 5 4 3 2 1 3 2 2 1 1 0 0 0 0 -0 -0 -0 -0 -1 -2 -1 -2 -2 -2 -2 -2 -2 -2 -2 -2 -1 -0 1 2 2 2 3 3 2 2
7 7 6 5 3 3 2 1 2 2 1 1 0 0 0 0 0 0 -0 -1 -1 -1 -1 -1 -1 -2 -2 -2 -2 -2 -2 -2 -2 -2 -1 -1 0 1 2 2 2 2 2 2
6 6 4 3 2 1 2 2 2 1 1 -0 -1 -1 -0 -0 0 0 -0 -1 -1 -1 -1 -2 -2 -2 -2 -2 -2 -2 -2 -2 -1 -1 -1 -1 -1 0 2 2 2 1 1 0
4 3 3 3 2 2 2 2 2 1 0 -1 -1 -0 -0 -0 -0 -0 -0 -1 -1 -1 -1 -2 -2 -2 -2 -2 -2 -2 -2 -2 -1 -1 -1 -1 -1 0 1 1 0 0 -1 -1
4 4 4 3 2 2 1 3 3 2 1 -1 -1 -1 -0 0 -0 -0 -0 -1 -1 -2 -2 -2 -2 -2 -2 -2 -2 -2 -2 -2 -1 -1 -1 -1 -1 -1 -1 -1 -1 -1 -1 -1
4 4 0 -1 -1 1 3 3 2 0 0 -1 -1 -1 -1 -0 -0 -0 -1 -1 -1 -1 -2 -2 -2 -2 -2 -3 -2 -3 -2 -2 -2 -2 -1 -2 -1 -1 -1 -2 -2 -1 -2 -2
3 2 -0 -1 -1 1 3 3 2 1 0 0 -0 -1 -1 -1 -1 -0 -0 -1 -1 -1 -2 -2 -2 -2 -3 -3 -2 -2 -2 -2 -2 -2 -2 -2 -2 -2 -2 -2 -2 -2 -2 -2
3 3 3 2 1 2 3 3 3 1 0 0 0 -0 -1 -1 -1 -1 -1 -1 -2 -2 -2 -2 -2 -2 -3 -3 -3 -3 -3 -3 -3 -2 -2 -2 -2 -2 -2 -2 -2 -2 -2 -2
2 2 2 3 3 1 -0 3 3 3 2 1 1 1 -0 -1 -0 -1 -1 -2 -2 -2 -2 -2 -2 -3 -3 -3 -3 -3 -3 -3 -3 -3 -3 -3 -3 -3 -3 -3 -3 -3 -3 -3
2 2 2 1 0 0 1 2 2 3 2 2 3 2 0 -1 -1 -1 -2 -2 -2 -2 -2 -2 -2 -3 -3 -3 -3 -3 -3 -3 -3 -3 -3 -3 -3 -3 -3 -3 -4 -4 -4 -4
1 0 1 1 1 1 2 1 0 1 2 1 1 1 0 -0 -1 -1 -1 -2 -2 -2 -2 -2 -3 -3 -3 -3 -3 -3 -3 -3 -3 -3 -3 -3 -3 -3 -4 -4 -4 -4 -4 -4
-0 -0 -0 -0 0 1 1 1 0 1 1 1 0 1 -0 -1 -1 -1 -2 -2 -2 -2 -2 -3 -3 -3 -3 -3 -3 -3 -3 -3 -3 -3 -3 -3 -4 -4 -4 -4 -4 -4 -4 -4

GFSNGP_925_temp_249.txt.gz
Temp
7 7 7 8 8 8 8 9 7 9 9 10 11 9 11 12 13 12 12 12 11 11 12 12 12 12 14 14 14 14 15 15 15 16 16 16 16 16 15 16 16 16 15 15
1 7 8 7 8 9 9 9 9 9 9 10 11 11 11 12 12 11 11 11 12 12 11 11 12 12 12 13 14 14 14 14 15 15 15 15 15 15 15 15 15 15 15 15
1 7 6 5 8 9 9 9 9 8 9 10 10 11 10 11 11 11 11 11 11 11 11 11 12 12 12 12 13 13 13 14 14 14 15 15 15 15 15 15 14 14 15 15
-1 4 2 8 9 10 9 9 9 9 9 10 10 10 10 10 10 10 10 11 11 10 10 11 11 11 11 11 11 12 12 13 13 13 14 14 14 14 15 15 14 13 13 13
-1 0 6 9 9 9 9 9 9 9 9 9 9 9 10 11 11 10 10 10 10 11 11 10 10 10 10 10 10 10 10 10 11 11 12 12 13 13 14 14 14 14 13 12
-4 1 1 8 8 9 9 7 9 9 8 8 8 6 7 9 9 9 9 10 10 10 10 9 9 9 9 9 8 8 8 8 8 9 10 10 11 12 12 13 14 13 13 12
-6 -0 5 7 8 9 5 6 8 8 7 7 6 7 8 7 7 8 9 9 9 9 8 8 8 8 7 7 7 7 7 7 7 8 9 9 10 10 11 11 11 12 12 12
-2 -3 2 8 8 8 7 7 7 6 6 6 6 6 6 6 7 7 7 8 8 7 7 6 6 6 6 6 6 6 6 6 6 6 7 8 8 8 8 8 8 8 8 10
3 4 6 7 7 7 6 5 6 6 6 6 6 6 5 5 5 5 5 5 5 4 4 4 4 4 4 4 4 4 4 4 4 5 5 6 6 6 6 5 3 4 4 4
5 6 7 6 6 6 7 7 6 6 5 4 4 4 4 4 4 4 4 4 3 3 3 3 3 4 4 4 4 4 4 4 4 4 3 4 4 4 4 3 3 3 3 3
4 5 5 6 6 6 6 6 5 5 4 4 3 3 3 3 3 3 3 4 4 3 3 2 2 2 2 2 2 2 2 2 2 2 3 3 2 2 2 3 4 3 3 4
3 4 5 5 6 6 6 5 4 4 3 3 3 2 3 3 3 4 3 3 3 2 1 1 0 -0 -0 0 1 1 1 0 0 -0 0 1 1 2 1 1 2 4 3 3
4 6 5 5 5 6 5 5 4 4 3 2 2 3 3 3 3 2 2 1 1 0 -0 -0 -0 -1 -1 -1 -1 -1 -1 -1 -1 -1 -1 -1 -0 0 1 1 2 3 3 4
5 5 4 5 5 5 5 4 4 3 3 3 3 2 2 1 1 1 1 0 0 0 -0 -0 -1 -1 -1 -1 -1 -2 -1 -1 -2 -2 -1 -1 -1 -0 0 1 2 2 3 3
6 5 5 5 5 5 4 3 1 1 3 2 2 1 1 1 1 1 0 1 0 -0 -0 -0 -1 -1 -1 -2 -2 -2 -2 -2 -2 -2 -2 -2 -2 -1 -1 0 1 2 2 3
5 5 4 5 5 4 2 1 0 2 2 2 1 0 0 0 0 0 0 0 -0 -0 -1 -1 -1 -1 -2 -2 -2 -2 -2 -2 -2 -2 -2 -2 -2 -1 -1 0 1 1 2 2
5 5 4 4 3 2 1 2 2 2 2 1 0 -0 -0 -0 -0 0 -0 -0 -0 -1 -2 -1 -1 -2 -2 -2 -2 -2 -2 -2 -2 -2 -2 -2 -1 -1 -1 -0 1 1 2 2
6 4 3 2 2 1 1 1 2 2 1 1 -0 -1 -1 -0 -0 -0 -0 -0 -1 -1 -1 -1 -1 -2 -2 -2 -2 -2 -2 -2 -2 -2 -2 -1 -1 -1 -1 -1 -0 1 2 2
4 2 2 2 2 1 1 1 2 3 3 1 -0 -1 -1 -1 -1 -0 -0 -1 -0 -1 -1 -2 -2 -2 -3 -2 -3 -3 -2 -2 -2 -2 -2 -1 -1 -1 -1 -1 -1 0 1 0
3 3 3 3 2 2 1 2 2 1 2 0 -0 -1 -1 -1 -1 -1 -1 -1 -1 -1 -1 -2 -2 -2 -2 -3 -3 -3 -3 -3 -2 -2 -2 -2 -2 -1 -1 -1 -0 -0 -0 -1
3 3 2 -1 -1 -0 1 2 1 1 2 1 -0 -1 -0 -1 -1 -1 -1 -1 -1 -1 -2 -2 -2 -2 -3 -3 -3 -3 -3 -3 -3 -3 -2 -2 -2 -2 -2 -2 -1 -1 -1 -1
3 2 0 -1 -2 -1 2 2 2 2 1 0 1 -0 -0 -1 -1 -1 -1 -1 -1 -2 -2 -2 -2 -3 -3 -3 -3 -3 -3 -3 -3 -3 -3 -3 -2 -2 -2 -2 -2 -2 -2 -2
2 1 1 2 1 1 1 2 3 2 1 1 1 1 -0 -0 -1 -1 -1 -1 -2 -2 -2 -2 -3 -3 -3 -3 -3 -3 -3 -3 -4 -3 -3 -3 -3 -3 -3 -3 -2 -2 -2 -2
1 1 1 1 1 1 -1 1 0 1 1 2 1 2 1 -1 -1 -1 -1 -2 -2 -2 -2 -2 -2 -3 -3 -4 -4 -4 -3 -4 -3 -3 -3 -3 -3 -3 -3 -3 -3 -3 -3 -3
-0 -0 -0 -0 -1 -1 -1 -0 -0 0 1 0 1 2 2 0 -1 -1 -1 -2 -2 -2 -2 -2 -2 -3 -3 -4 -4 -4 -3 -3 -3 -3 -3 -3 -4 -4 -4 -4 -4 -4 -4 -4
-1 -1 -1 -1 -2 -2 -2 -2 -2 -1 -1 -0 0 2 1 0 -1 -1 -1 -2 -2 -2 -2 -3 -3 -3 -3 -3 -4 -4 -4 -4 -3 -4 -4 -4 -4 -4 -4 -4 -4 -4 -4 -4
-1 -2 -2 -2 -2 -3 -3 -3 -3 -2 -2 -2 -1 0 -0 0 -1 -1 -1 -2 -2 -2 -2 -2 -3 -3 -3 -3 -3 -4 -4 -4 -4 -4 -4 -4 -4 -4 -4 -4 -4 -4 -4 -4